Header for Extended Forecast Station List Page

Search by: ID | Name | Date | Parm | Value | Avg | % Avg
Sort by: ID | Name | Date | Parm | Value | Avg | % Avg

Enter search or view all records.

Click on id for station plot
#IDNameDateParmValueAvg% Avg
0MILI1SNAKE-AT MILNER09-26-2022DISCHARGE (KAF)0480
1NACW1NACHES-NEAR NACHES09-26-2022DISCHARGE (KAF)5415634
2TNAW1TEANAWAY-BELOW FORKS09-26-2022DISCHARGE (KAF)123139
3WGCM8MF FLATHEAD-NEAR WEST GLACIER09-26-2022DISCHARGE (KAF)7417044
4BIGI1BOISE-AT GLENWOOD BRIDGE09-26-2022DISCHARGE (KAF)337246
5COEI1COEUR D ALENE-COEUR D ALENE LAKE09-26-2022INFLOW (KAF)27854851
6SATI1ST MARIES-NEAR SANTA09-26-2022DISCHARGE (KAF)142851
7SPOW1SPOKANE-AT SPOKANE09-26-2022DISCHARGE (KAF)43077056
8DWRI1NF CLEARWATER-DWORSHAK DAM09-26-2022INFLOW (KAF)27046958
9WSRI1WEISER-NEAR WEISER09-26-2022DISCHARGE (KAF)315359
10ARDW1ENTIAT-NEAR ARDENVOIR09-26-2022DISCHARGE (KAF)152461
11PESW1WENATCHEE-AT PESHASTIN09-26-2022DISCHARGE (KAF)18029261
12LWRI1LITTLE WOOD-LITTLE WOOD DAM09-26-2022INFLOW (KAF)81263
13LLKW1SPOKANE-AT LONGLAKE09-26-2022INFLOW (KAF)60494264
14HHWM8SF FLATHEAD-HUNGRY HORSE DAM09-26-2022INFLOW (KAF)14622465
15BUDW1BUMPING-BUMPING LAKE DAM09-26-2022INFLOW (KAF)223466
16TRYO3GRANDE RONDE-TROY09-26-2022DISCHARGE (KAF)16524069
17STRM8ST. REGIS-NEAR ST. REGIS09-26-2022DISCHARGE (KAF)212971
18OWYO3OWYHEE-OWYHEE DAM09-26-2022INFLOW (KAF)547671
19MONO3NF JOHN DAY-AT MONUMENT09-26-2022DISCHARGE (KAF)446271
20CHDW1CHELAN-LAKE CHELAN DAM09-26-2022INFLOW (KAF)13018072
21BERO3MALHEUR-AGENCY VALLEY DAM09-26-2022INFLOW (KAF)101472
22FCFM8NF FLATHEAD-NEAR COLUMBIA FALLS09-26-2022DISCHARGE (KAF)14319773
23KADW1KACHESS-KACHESS DAM09-26-2022INFLOW (KAF)334573
24WRMO3MALHEUR-WARM SPRINGS DAM09-26-2022INFLOW (KAF)131873
25RILW1TIETON-RIMROCK LAKE NEAR RIMROCK09-26-2022INFLOW (KAF)486574
26PARW1YAKIMA-NEAR PARKER09-26-2022DISCHARGE (KAF)28939274
27KIOW1YAKIMA-AT KIONA09-26-2022DISCHARGE (KAF)46562475
28ORFI1CLEARWATER-AT OROFINO09-26-2022DISCHARGE (KAF)44659475
29SERO3JOHN DAY-AT SERVICE CK09-26-2022DISCHARGE (KAF)9212275
30KERM8FLATHEAD-SELI’Š KSANKA QLISPE’ DAM09-26-2022INFLOW (KAF)966127176
31CABI1CLARK FORK-CABINET GORGE DAM09-26-2022INFLOW (KAF)2482327076
32CLUW1CLE ELUM-CLE ELUM LAKE09-26-2022INFLOW (KAF)7910476
33PARI1BOISE-NEAR PARMA09-26-2022DISCHARGE (KAF)15921176
34CSDI1NF PAYETTE-CASCADE DAM09-26-2022INFLOW (KAF)678876
35NOXM8CLARK FORK-NOXON RAPIDS DAM09-26-2022INFLOW (KAF)2266293477
36ALFW1PEND OREILLE-ALBENI FALLS DAM09-26-2022INFLOW (KAF)2827361278
37UMTW1YAKIMA-AT UMTANUM09-26-2022DISCHARGE (KAF)21127078
38EASW1YAKIMA-AT EASTON09-26-2022DISCHARGE (KAF)536779
39PIHI1PORTNEUF-AT POCATELLO09-26-2022DISCHARGE (KAF)344479
40MACI1BIG LOST-MACKAY RESERVOIR NEAR MACKAY09-26-2022INFLOW (KAF)334279
41MAGI1BIG WOOD-MAGIC DAM09-26-2022INFLOW (KAF)172279
42BITM8BITTERROOT-NEAR MISSOULA09-26-2022DISCHARGE (KAF)16920981
43LGSW1SNAKE-LITTLE GOOSE DAM09-26-2022INFLOW (KAF)4335532881
44IHDW1SNAKE-ICE HARBOR DAM09-26-2022INFLOW (KAF)4356536381
45LAUW1KETTLE-AT LAURIER09-26-2022DISCHARGE (KAF)9311282
46TEAI1TETON-NEAR ST. ANTHONY09-26-2022DISCHARGE (KAF)8910882
47LGDW1SNAKE-LOWER GRANITE DAM09-26-2022INFLOW (KAF)4339528882
48LMNW1SNAKE-LOWER MONUMENTAL DAM09-26-2022INFLOW (KAF)4356534282
49HWRI1BIG LOST-AT HOWELL RANCH NEAR CHILLY09-26-2022DISCHARGE (KAF)182283
50ANAW1SNAKE-NEAR ANATONE09-26-2022DISCHARGE (KAF)3432413983
51SRGM8CLARK FORK-AT ST REGIS09-26-2022DISCHARGE (KAF)59671084
52CLFW1NACHES-NEAR CLIFFDEL09-26-2022DISCHARGE (KAF)8510184
53JLKW4SNAKE-JACKSON LAKE AT DAM09-26-2022INFLOW (KAF)9411184
54SPDI1CLEARWATER-AT SPALDING09-26-2022DISCHARGE (KAF)906107684
55MODO3DESCHUTES-AT MOODY NR BIGGS09-26-2022DISCHARGE (KAF)1058125884
56LYDM8KOOTENAI-LIBBY DAM09-26-2022INFLOW (KAF)861101385
57GIBO3UMATILLA-NEAR GIBBON09-26-2022DISCHARGE (KAF)222685
58TONW1OKANOGAN-NEAR TONASKET09-26-2022DISCHARGE (KAF)24128186
59PATW1METHOW-NEAR PATEROS09-26-2022DISCHARGE (KAF)8910486
60KEDW1YAKIMA-KEECHELUS LAKE09-26-2022INFLOW (KAF)435086
61ANTI1HENRYS FORK-AT ST. ANTHONY09-26-2022DISCHARGE (KAF)30135086
62ALPW4SNAKE-NEAR ALPINE09-26-2022DISCHARGE (KAF)39145786
63HALI1BIG WOOD-AT HAILEY09-26-2022DISCHARGE (KAF)344086
64BONO3COLUMBIA-BONNEVILLE DAM09-26-2022INFLOW (KAF)273083182486
65MCDW1COLUMBIA-MCNARY DAM09-26-2022INFLOW (KAF)253102904087
66TDAO3COLUMBIA-THE DALLES DAM09-26-2022INFLOW (KAF)267343066887
67BELM8CLARK FORK-BELOW MISSOULA09-26-2022DISCHARGE (KAF)48354888
68PLDI1SF SNAKE-PALISADES DAM09-26-2022INFLOW (KAF)60768688
69JDAO3COLUMBIA-JOHN DAY DAM09-26-2022INFLOW (KAF)262182993088
70PRTI1PRIEST-NEAR PRIEST RIVER09-26-2022DISCHARGE (KAF)21323989
71PRWW1COLUMBIA-PRIEST RAPIDS DAM09-26-2022INFLOW (KAF)204762288789
72JKSW4SNAKE-NEAR JACKSON09-26-2022DISCHARGE (KAF)33937989
73WANW1COLUMBIA-WANAPUM DAM09-26-2022INFLOW (KAF)204432281990
74HOTI1BRUNEAU-NEAR HOT SPRINGS09-26-2022DISCHARGE (KAF)192190
75PDTO3UMATILLA-AT PENDLETON09-26-2022DISCHARGE (KAF)485390
76BONM8BLACKFOOT-NEAR BONNER09-26-2022DISCHARGE (KAF)12213591
77CIBW1COLUMBIA-AT INTL BOUNDARY09-26-2022DISCHARGE (KAF)179831984491
78WELW1COLUMBIA-WELLS DAM09-26-2022INFLOW (KAF)199282182991
79RRHW1COLUMBIA-ROCKY REACH DAM09-26-2022INFLOW (KAF)202412224091
80ARAI1SF BOISE-ANDERSON RANCH DAM09-26-2022INFLOW (KAF)616791
81EMMI1PAYETTE-NEAR EMMETT09-26-2022DISCHARGE (KAF)22524691
82WHBI1SALMON-AT WHITEBIRD09-26-2022DISCHARGE (KAF)939103791
83CFMM8FLATHEAD-AT COLUMBIA FALLS09-26-2022DISCHARGE (KAF)85893092
84GCDW1COLUMBIA-GRAND COULEE DAM09-26-2022INFLOW (KAF)187062036592
85CHJW1COLUMBIA-CHIEF JOSEPH DAM09-26-2022INFLOW (KAF)195802124392
86LUCI1BOISE-LUCKY PEAK DAM09-26-2022INFLOW (KAF)717892
87DEDI1DEADWOOD-NEAR LOWMAN09-26-2022INFLOW (KAF)151792
88PITW1KLICKITAT-NEAR PITT09-26-2022DISCHARGE (KAF)21423392
89CHEI1FALL RIVER-NEAR CHESTER09-26-2022DISCHARGE (KAF)11011993
90ABOM8CLARK FORK-ABOVE MISSOULA09-26-2022DISCHARGE (KAF)31333095
91IPDI1HENRYS FORK-ISLAND PARK DAM09-26-2022INFLOW (KAF)10410995
92REXI1HENRYS FORK-AT REXBURG09-26-2022DISCHARGE (KAF)38040295
93WEII1SNAKE-AT WEISER09-26-2022DISCHARGE (KAF)2580270196
94SWAI1SNAKE-BELOW SWAN FALLS09-26-2022DISCHARGE (KAF)1820185398
95BRNI1SNAKE-BROWNLEE DAM09-26-2022INFLOW (KAF)2745280298
96DLGM8CLARK FORK-AT DEER LODGE09-26-2022DISCHARGE (KAF)505099
97LEOI1KOOTENAI-AT LEONIA09-26-2022DISCHARGE (KAF)26482644100
98UNDW1WHITE SALMON-NEAR UNDERWOOD09-26-2022DISCHARGE (KAF)195195100
99DRMM8CLARK FORK-NR DRUMMOND09-26-2022DISCHARGE (KAF)127126101
100RCCM8ROCK CREEK-NEAR CLINTON09-26-2022DISCHARGE (KAF)5050101
101TCHW1WALLA WALLA-NEAR TOUCHET09-26-2022DISCHARGE (KAF)8481104
102SHYI1SNAKE-NEAR SHELLEY09-26-2022DISCHARGE (KAF)819744110
103MYKO3MCKAY CREEK-NEAR PILOT ROCK09-26-2022DISCHARGE (KAF)1311113
104SIFI1SNAKE-AB EAGLE ROCK NR IDAHO FALLS09-26-2022DISCHARGE (KAF)835724115
105AFRI1SNAKE-AMERICAN FALLS RESERVOIR09-26-2022INFLOW (KAF)13811190116
106UMAO3UMATILLA-NEAR UMATILLA09-26-2022DISCHARGE (KAF)8573116
107HODO3HOOD-NEAR TUCKER BRIDGE09-26-2022DISCHARGE (KAF)204175116
108SNAI1SNAKE-AT BLACKFOOT09-26-2022DISCHARGE (KAF)706603117
109BFTI1SNAKE-NEAR BLACKFOOT09-26-2022DISCHARGE (KAF)727591123
110HEII1SNAKE-NEAR HEISE09-26-2022DISCHARGE (KAF)694560124
111RIDI1WILLOW CREEK-RIRIE DAM09-26-2022INFLOW (KAF)1410133
112BULO3BULLY CREEK-BULLY CREEK DAM09-26-2022INFLOW (KAF)21177
113BFEI1KOOTENAI-AT BONNERS FERRY09-26-2022STAGE (FT)MMM
114HOPI1PEND OREILLE-PEND OREILLE LAKE NR HOPE09-26-2022LAKE ELEVATION (FT)MMM
115SJMI1ST JOE-AT ST MARIES09-26-2022STAGE (FT)MMM